Location: Diendorf
(48.6500°N, 13.9833°E)
Time: 23:49:46
(UTC+00:00)

Daily predictions for brighter satellites

Satellite Brightness Start Highest point End
(mag) Time Altitude Azimuth Time Altitude Azimuth Time Altitude Azimuth
CZ-4C R/B 3.2 15:36:01 10° NW 15:42:32 45° NE 15:50:14 10° ESE
CZ-2C R/B 4.3 15:42:45 10° ENE 15:45:03 13° E 15:47:21 10° ESE
Cosmos 1606 2.9 15:41:33 10° SSW 15:45:19 74° W 15:49:07 10° N
Cosmos 1763 Rocket 3.6 15:42:37 10° S 15:47:32 55° ESE 15:52:32 10° NNE
Cosmos 1782 4.1 15:44:32 10° SE 15:47:34 21° E 15:50:36 10° NE
USA 229 DEB 4.0 15:44:19 10° NW 15:51:39 89° SW 15:59:27 10° SE
USA 229 4.0 15:44:24 10° NW 15:51:44 89° SW 15:59:33 10° SE
Cosmos 1500 4.2 15:49:43 10° NNE 15:52:53 25° ENE 15:56:01 10° SE
H-2A R/B 2.8 15:48:48 10° ESE 15:53:06 28° ENE 15:57:20 10° N
CZ-4B R/B 4.1 15:49:14 10° ESE 15:53:29 24° ENE 15:57:41 10° N
CZ-2D R/B 4.3 15:51:55 10° ESE 15:55:00 23° ENE 15:58:03 10° NNE
Cosmos 841 Rocket 4.4 15:50:37 10° SSE 15:55:02 30° E 15:59:29 10° NE
Cosmos 2360 4.2 15:50:21 10° NNW 15:56:07 72° ENE 16:01:50 10° SE
Cosmos 1340 Rocket 2.9 15:52:52 10° NNW 15:56:58 87° WSW 16:01:03 10° S
ATLAS CENTAUR R/B 3.5 15:55:28 10° WNW 15:58:38 19° NNW 16:01:57 10° NNE
Cosmos 1937 Rocket 3.6 15:53:41 10° NNW 15:58:59 62° ENE 16:04:15 10° SE
SeaSat 1 3.9 15:54:50 10° NNE 15:59:13 32° NW 16:03:34 10° WSW
ATLAS 2AS CENTAUR R/B 4.2 15:53:26 10° WNW 15:59:55 28° NNW 16:06:07 10° NE
CZ-4C R/B 3.7 15:56:25 10° N 16:00:15 61° WNW 16:03:52 10° SSW
Meteor 1-20 Rocket 4.3 15:55:10 10° N 16:01:01 74° ENE 16:06:52 10° SSE
COSMOS 2455 3.5 15:58:14 10° S 16:03:44 39° ESE 16:09:16 10° NE
USA 308 3.6 16:00:01 10° WNW 16:04:02 39° N 16:07:37 12° ENE
Cosmos 2034 Rocket 4.0 15:57:54 10° S 16:04:03 83° E 16:10:15 10° N
Cosmos 990 Rocket 4.4 15:59:04 10° NNW 16:04:15 70° WSW 16:09:22 10° SSE
SMAP 3.1 16:00:02 10° SSE 16:04:35 59° ENE 16:09:10 10° N
Lacrosse 5 rocket 2.1 16:02:23 10° NW 16:05:54 33° NNE 16:09:12 12° E
COSMO-SKYMED 1 4.2 16:04:26 11° NE 16:06:52 16° E 16:09:33 10° SE
Cosmos 372 Rocket 4.2 16:01:59 10° NNW 16:07:05 48° ENE 16:12:08 10° SE
ATLAS CENTAUR R/B 3.2 15:57:29 10° SW 16:08:08 67° SE 16:12:03 13° ENE
Cosmos 2360 Rocket 3.9 16:05:28 10° N 16:08:18 14° NNE 16:10:24 12° NE
AQUARIUS 4.2 16:05:04 10° SSE 16:09:27 55° ENE 16:13:51 10° N
USA 234 3.3 16:05:04 10° ESE 16:11:38 84° NNE 16:18:11 10° NW
Cosmos 44 Rocket 4.1 16:08:22 10° NNW 16:12:49 31° NE 16:17:08 10° E
Cosmos 1633 Rocket 4.0 16:09:23 10° NNE 16:13:04 26° ENE 16:16:45 10° SE
SL-24 R/B - RUBIN 2 3.5 16:10:01 10° NW 16:14:36 67° NE 16:18:54 10° SE
ISS -3.7 16:13:03 10° WNW 16:16:28 85° SSW 16:19:52 10° ESE
NOAA 6 4.0 16:11:38 10° SSE 16:16:45 76° ENE 16:21:53 10° NNW
YAOGAN 1 4.4 16:19:41 13° NE 16:19:41 13° NE 16:20:54 10° NNE
NOSS 2-2 (D) 4.2 16:14:49 10° NW 16:19:51 77° NE 16:26:56 10° SE
NOSS 2-2 (E) 4.4 16:14:46 10° NW 16:19:58 89° NNE 16:27:21 10° SE
Cosmos 1666 3.4 16:18:56 10° N 16:22:13 29° ENE 16:25:30 10° SE
Cosmos 1634 Rocket 4.1 16:17:40 10° S 16:23:51 59° E 16:30:04 10° NNE
Cosmos 1151 Rocket 3.8 16:20:33 10° SSE 16:24:19 30° E 16:27:48 12° NNE
Meteor 2-14 Rocket 4.4 16:19:11 10° N 16:25:18 69° ENE 16:31:20 10° SSE
Cosmos 2026 Rocket 3.9 16:20:17 10° N 16:26:27 75° E 16:32:30 10° SSE
PSLV R/B 3.7 16:23:08 10° SSE 16:26:45 55° ENE 16:30:25 10° N
Cosmos 1743 Rocket 4.3 16:24:19 10° NNW 16:28:34 56° W 16:32:48 10° S
CZ-4B R/B 4.0 16:25:39 10° S 16:29:31 46° W 16:33:13 10° NNW
Cosmos 2322 Rocket 3.3 16:25:08 10° N 16:29:38 23° NE 16:32:01 18° ENE
Cosmos 2195 Rocket 4.5 16:24:02 10° N 16:30:14 89° W 16:36:27 10° S
USA 305 3.5 16:26:13 10° WNW 16:30:15 40° N 16:32:40 21° ENE
Cosmos 1697 Rocket 3.3 16:25:09 10° NNW 16:30:42 62° WSW 16:36:12 10° SSE
Cosmos 1933 3.3 16:26:52 10° S 16:30:54 88° W 16:34:58 10° N
SL-08 R/B 4.4 16:30:10 10° N 16:34:40 45° WNW 16:39:04 10° SW
Cosmos 1980 Rocket 2.1 16:29:51 10° NNW 16:35:34 81° ENE 16:41:13 10° SSE
Okean O Rocket 2.2 16:32:19 10° SE 16:36:21 35° ENE 16:40:24 10° N
Cosmos 540 Rocket 3.4 16:33:31 10° SSW 16:38:37 86° ESE 16:43:46 10° NNE
Cosmos 2369 3.9 16:34:09 10° NNW 16:39:53 78° WSW 16:45:36 10° SSE
Cosmos 1666 Rocket 3.6 16:35:35 10° N 16:39:58 54° ENE 16:44:18 10° SSE
MOS 1-B 4.3 16:36:40 10° SSE 16:42:24 72° ENE 16:48:11 10° NNW
Cosmos 1470 Rocket 4.3 16:39:12 10° N 16:43:11 31° ENE 16:47:09 10° SE
Cosmos 1328 Rocket 4.2 16:40:45 10° SSE 16:44:46 35° E 16:46:57 22° NE
Meteor 1-5 Rocket 4.3 16:39:50 10° N 16:45:47 62° ENE 16:51:37 10° SSE
Cosmos 1812 2.8 16:42:28 10° S 16:46:12 52° E 16:48:49 18° NNE
Meteor 1-14 Rocket 4.2 16:42:14 10° N 16:48:04 70° ENE 16:53:59 10° SSE
SL-16 R/B 2.8 16:43:11 10° NNW 16:48:23 35° NE 16:51:23 21° E
ERBS 4.0 16:46:39 10° NW 16:49:02 19° N 16:49:40 18° N
EP 1 4.4 16:46:06 10° SW 16:49:20 85° NW 16:50:09 42° NE
Cosmos 1655 Rocket 4.4 16:43:27 10° N 16:49:28 41° ENE 16:55:25 10° SE
Meteor 2-21 Rocket 4.3 16:43:37 10° N 16:49:46 78° E 16:55:49 10° SSE
Cosmos 1570 Rocket 4.2 16:46:56 10° S 16:51:57 48° ESE 16:55:00 22° NE
Cosmos 2082 Rocket 2.1 16:46:54 10° SSW 16:52:34 72° ESE 16:56:54 18° NNE
Cosmos 2298 Rocket 4.4 16:48:29 10° NNW 16:53:33 42° ENE 16:58:05 12° SE
Cosmos 1814 Rocket 4.0 16:48:48 10° S 16:53:54 57° ESE 16:57:16 21° NE
SKYMED 2 3.8 16:53:03 24° NE 16:55:19 45° E 16:59:29 10° S
MOS 1-B Rocket 4.0 16:55:08 10° NNE 17:01:03 72° ESE 17:07:47 10° S
Cosmos 2333 Rocket 3.8 16:57:22 10° N 17:00:42 17° NNE 17:00:42 17° NNE
USA 306 3.3 16:58:29 10° WNW 17:02:35 45° NNE 17:03:34 38° NE
Cosmos 2278 3.7 16:57:50 10° NNW 17:03:36 87° WSW 17:09:17 10° SSE
Sich 1 4.0 16:59:47 10° NNW 17:03:55 48° W 17:08:04 10° SSW
Cosmos 1818 3.5 16:59:23 10° NW 17:04:53 69° NE 17:08:58 18° SE
ARGOS 3.1 17:00:49 10° SSE 17:06:11 69° ENE 17:11:34 10° N
Cosmos 1833 Rocket 3.7 17:07:18 10° SW 17:12:41 44° NW 17:17:33 13° NNE
GEOS 3 Rocket 3.8 17:13:44 37° E 17:15:18 50° NE 17:20:18 10° NNW
COSMOS 2406 3.9 17:10:55 10° SW 17:16:32 52° NW 17:21:11 15° NNE
deb Chang Zheng 4 3.5 17:13:15 10° SSE 17:17:33 83° WSW 17:21:54 10° NNW
USA 267 3.4 17:16:34 28° NE 17:20:12 68° NNW 17:26:41 10° WSW
USA 307 3.2 17:17:41 10° WNW 17:21:50 48° NNE 17:21:59 48° NNE
Cosmos 2219 Rocket 3.9 17:18:09 10° N 17:20:36 17° NNE 17:20:36 17° NNE
Cosmos 1782 4.3 17:19:56 10° SW 17:23:37 35° WNW 17:27:20 10° N
CZ-2C R/B 2.4 17:21:47 15° NNE 17:26:10 87° ESE 17:31:20 10° SSW
Cosmos 2208 Rocket 4.0 17:21:51 10° SSW 17:27:14 76° ESE 17:29:27 37° NNE
Cosmos 1515 Rocket 4.2 17:23:47 10° S 17:26:52 39° SE 17:26:52 39° SE
SL-08 RB Rocket 3.6 17:23:58 10° SSE 17:28:35 76° ENE 17:33:12 10° N
Cosmos 2150 Rocket 3.8 17:25:25 10° NNW 17:30:37 74° ENE 17:33:12 30° SE
CZ-4C R/B 3.3 17:24:25 10° NW 17:31:35 67° SW 17:39:56 10° SSE
H-2A R/B 3.1 17:27:24 10° S 17:32:20 46° W 17:37:12 10° NNW
Meteor 2-6 Rocket 4.1 17:26:36 10° S 17:32:22 89° ESE 17:36:56 16° NNE
CZ-4B R/B 3.6 17:28:19 10° S 17:33:40 61° WSW 17:38:58 10° NNW
ATLAS CENTAUR R/B 4.1 17:37:57 10° NNW 17:39:17 11° N 17:39:25 11° N
COSMO-SKYMED 1 3.0 17:41:39 33° N 17:43:27 61° WNW 17:47:43 10° SSW
USA 308 3.5 17:40:15 10° WNW 17:43:39 48° NNW 17:43:39 48° NNW
Lacrosse 5 rocket 1.6 17:41:19 10° WNW 17:44:49 64° W 17:44:49 64° W
Cosmos 1125 Rocket 3.4 17:40:32 10° NNW 17:45:49 89° ENE 17:47:32 44° SSE
Cosmos 921 Rocket 3.5 17:42:13 10° SSW 17:45:22 50° SSW 17:45:22 50° SSW
Cosmos 2237 4.3 17:40:59 10° NNW 17:46:08 54° NE 17:46:08 54° NE
COSMOS 2455 3.6 17:43:46 10° WSW 17:49:35 48° NW 17:52:28 28° NNE
NOSS 3-4 (A) 4.4 17:44:42 10° NW 17:50:44 35° NNE 17:50:44 35° NNE
NOSS 3-4 (C) 4.4 17:44:49 10° NW 17:50:49 35° NNE 17:50:49 35° NNE
Meteor 2-15 Rocket 4.3 17:46:36 10° S 17:52:43 83° E 17:55:53 31° NNE
ISS -1.3 17:50:25 10° W 17:52:55 19° SW 17:53:03 19° SW
ATLAS 2AS CENTAUR R/B 3.9 17:47:01 10° NW 17:53:17 27° NNE 17:54:01 27° NNE
Cosmos 2360 Rocket 2.9 17:48:17 10° NNW 17:52:12 38° N 17:52:12 38° N
Cosmos 2266 Rocket 4.1 17:47:28 10° N 17:53:53 80° W 18:00:17 10° S
YAOGAN 1 4.3 17:56:50 24° NNW 17:56:50 24° NNW 17:58:34 10° NNW
Cosmos 44 Rocket 3.9 17:49:49 10° NW 17:54:37 54° WSW 17:56:04 39° S
Meteor 1-11 Rocket 3.7 17:52:08 10° NNW 17:57:46 81° W 18:03:30 10° S
Meteor 1-10 Rocket 4.3 17:52:18 10° SSW 17:58:05 79° WNW 18:00:37 35° N
USA 305 4.4 18:06:14 10° WNW 18:08:40 33° NW 18:08:40 33° NW
Okean O Rocket 3.5 18:08:51 10° SSW 18:12:44 29° W 18:16:38 10° NW
Cosmos 2322 Rocket 2.3 18:08:40 10° NNW 18:13:53 74° NW 18:13:53 74° NW
SL-16 R/B 3.0 18:27:15 10° NW 18:32:40 47° WSW 18:33:21 45° SW
Cosmos 2082 Rocket 4.0 18:32:34 10° W 18:37:13 25° NW 18:38:46 23° NNW
ATLAS CENTAUR R/B 4.3 18:34:19 10° W 18:37:44 23° NW 18:37:44 23° NW
Cosmos 2333 Rocket 4.1 18:40:48 10° NNW 18:42:44 22° NNW 18:42:44 22° NNW
USA 267 4.2 19:03:54 40° NNW 19:03:54 40° NNW 19:08:49 10° WNW
